IZ5TJI-3 Weather Reports


time (UTC)temp
F
wind
direction
speed
knots
gust
knots
rain 1hr
in
rain 24hr
in
rain mn
in
humidity
%
barometer
mb
20260506234439 53 90 0.9 0.9 0.02 1.26 0.00 91 1011.7
20260506232939 53 112 0.0 0.0 0.02 1.26 0.00 91 1011.8
20260506231439 53 112 0.0 1.7 0.02 1.26 0.00 91 1012.1
20260506225939 53 112 2.6 2.6 0.04 1.26 0.00 90 1011.8
20260506224439 53 112 0.9 0.9 0.04 1.24 0.00 90 1011.9
20260506222939 53 112 0.0 0.0 0.06 1.24 0.00 90 1012.1
20260506221439 53 135 0.0 0.0 0.06 1.24 0.00 89 1011.8
20260506215939 53 112 0.9 0.9 0.04 1.42 0.00 88 1011.6
20260506214439 53 157 0.0 0.0 0.02 1.40 0.00 88 1011.8
20260506213052 54 157 0.9 2.6 0.00 1.38 0.00 87 1011.9
20260506212939 54 157 0.9 2.6 0.00 1.38 0.00 87 1011.9
20260506211439 55 157 0.9 0.9 0.00 1.38 0.00 86 1011.7
20260506205939 55 135 0.0 0.0 0.00 1.42 0.00 84 1011.5
20260506204439 56 180 0.0 5.2 0.00 1.42 0.00 84 1011.4
20260506202939 57 157 1.7 6.1 0.00 1.42 0.00 84 1011.4
20260506201439 57 135 0.0 1.7 0.00 1.42 0.00 83 1011.2
20260506195939 58 157 1.7 3.5 0.00 1.42 0.00 83 1011.2
20260506194439 59 135 0.0 0.0 0.00 1.42 0.00 81 1010.8
20260506192939 60 135 0.0 0.9 0.00 1.42 0.00 78 1010.5
20260506191439 60 180 1.7 1.7 0.00 1.42 0.00 76 1010.5
20260506185939 61 180 0.0 0.9 0.00 1.42 0.00 74 1010.0
20260506184439 61 270 0.0 0.0 0.00 1.42 0.00 74 1010.0
20260506182939 62 270 0.0 0.0 0.00 1.42 0.00 72 1010.0
20260506181439 62 247 0.0 0.0 0.00 1.42 0.00 72 1009.8
20260506175939 63 180 1.7 1.7 0.00 1.42 0.00 70 1009.8
20260506174439 63 247 3.5 4.3 0.00 1.42 0.00 68 1009.7
20260506172939 64 247 3.5 6.1 0.00 1.42 0.00 66 1009.5
20260506171439 65 270 3.5 3.5 0.00 1.42 0.00 63 1009.5
20260506165939 65 292 4.3 6.1 0.00 1.42 0.00 63 1009.3
20260506164510 65 270 0.9 5.2 0.00 1.42 0.00 62 1009.3
20260506164439 65 270 0.9 5.2 0.00 1.42 0.00 62 1009.3
20260506162939 65 270 4.3 13.0 0.00 1.42 0.00 62 1009.3
20260506161439 64 270 10.4 10.4 0.00 1.42 0.00 67 1009.1
20260506155939 65 270 8.7 12.2 0.00 1.42 0.00 69 1008.9
20260506154439 65 225 4.3 4.3 0.00 1.42 0.00 75 1008.9
20260506152939 66 270 6.1 13.9 0.00 1.42 0.00 76 1008.9
20260506151439 65 270 7.0 18.2 0.00 1.42 0.00 76 1008.8
20260506145939 67 247 12.2 12.2 0.00 1.44 0.00 73 1008.7
20260506144440 69 247 11.3 12.2 0.00 1.44 0.00 68 1008.6
20260506142940 69 225 6.1 11.3 0.00 1.44 0.00 66 1008.5
20260506141512 67 270 3.5 4.3 0.00 1.44 0.00 73 1008.5
20260506141440 67 270 3.5 4.3 0.00 1.44 0.00 73 1008.5
20260506135940 66 270 4.3 10.4 0.00 1.44 0.00 74 1008.7
20260506134515 66 270 7.0 9.6 0.00 1.44 0.00 71 1008.8
20260506134440 66 270 7.0 9.6 0.00 1.44 0.00 71 1008.8
20260506132940 66 292 11.3 18.2 0.00 1.44 0.00 69 1008.8
20260506131440 64 270 7.0 18.2 0.00 1.44 0.00 69 1008.9
20260506125940 67 247 8.7 8.7 0.00 1.50 0.00 65 1009.1
20260506124440 68 225 13.9 13.9 0.00 1.50 0.00 71 1009.0
20260506122940 68 247 7.8 11.3 0.00 1.50 0.00 70 1008.9
20260506121529 69 180 7.0 13.0 0.00 1.50 0.00 69 1008.8
20260506121440 69 180 7.0 13.0 0.00 1.50 0.00 69 1008.8
20260506115940 68 157 4.3 10.4 0.00 1.52 0.00 72 1008.7
20260506114440 67 225 8.7 8.7 0.00 1.52 0.00 73 1008.8
20260506112940 67 180 8.7 8.7 0.00 1.52 0.00 73 1009.0
20260506111440 65 202 7.0 10.4 0.00 1.52 0.00 77 1009.0
20260506105940 66 225 8.7 12.2 0.00 1.52 0.00 74 1009.2
20260506104858 67 180 10.4 10.4 0.00 1.52 0.00 71 1009.2
20260506104440 67 180 10.4 10.4 0.00 1.52 0.00 71 1009.2
20260506102940 67 157 8.7 8.7 0.00 1.52 0.00 73 1009.2
20260506101440 67 202 11.3 16.5 0.00 1.52 0.00 71 1009.2
20260506095940 66 202 7.8 8.7 0.00 1.59 0.00 74 1009.1
20260506094440 66 202 11.3 12.2 0.00 1.59 0.00 73 1009.1
20260506092940 65 180 7.0 7.0 0.00 1.59 0.00 77 1009.0
20260506091440 64 202 12.2 12.2 0.00 1.59 0.00 75 1009.3
20260506085940 64 202 8.7 9.6 0.00 1.61 0.00 76 1009.5
20260506084440 63 180 11.3 11.3 0.00 1.61 0.00 79 1009.4
20260506082940 63 157 1.7 7.8 0.00 1.61 0.00 81 1009.3
20260506081440 61 180 3.5 6.1 0.00 1.61 0.00 84 1009.4
20260506072940 59 90 0.0 3.5 0.00 1.61 0.00 91 1009.3
20260506071511 58 112 0.0 0.0 0.00 1.61 0.00 92 1009.1
20260506071440 58 112 0.0 0.0 0.00 1.61 0.00 92 1009.1
20260506061440 57 157 0.0 2.6 0.02 1.61 0.00 92 1009.1
20260506044441 57 112 3.5 6.1 0.00 1.65 0.00 92 1008.6
20260506042941 57 90 3.5 6.1 0.00 1.65 0.00 92 1008.9
20260506041512 57 90 2.6 2.6 0.00 1.65 0.00 92 1009.0
20260506041441 57 90 2.6 2.6 0.00 1.65 0.00 92 1009.0
20260506035941 57 67 0.9 1.7 0.04 1.79 0.00 92 1009.2
20260506034441 57 67 0.0 1.7 0.10 1.79 0.00 92 1009.4
20260506032941 57 90 1.7 1.7 0.10 1.79 0.00 92 1009.4
20260506030015 58 90 2.6 3.5 0.44 1.77 0.00 92 1009.4
20260506024514 58 112 1.7 1.7 0.48 1.71 0.00 92 1009.6
20260506023014 57 45 0.9 3.5 0.97 1.71 0.00 93 1009.2
20260506021514 57 90 2.6 4.3 0.85 1.50 0.00 93 1009.4
20260506020014 57 135 7.0 7.0 0.67 1.34 0.00 92 1009.3
20260506014514 56 45 4.3 5.2 0.46 1.14 0.00 91 1009.3
20260506013014 56 45 1.7 1.7 0.08 0.75 0.00 91 1009.5
20260506011514 56 0 3.5 4.3 0.00 0.67 0.00 91 1009.5
20260506010014 57 0 2.6 4.3 0.00 0.73 0.00 91 1009.8
20260506004514 57 22 0.0 0.0 0.00 0.73 0.00 91 1010.1
20260506003014 57 45 0.0 4.3 0.00 0.73 0.00 92 1010.4
20260506001514 58 0 3.5 3.5 0.00 0.73 0.00 93 1010.4
20260506000014 58 135 0.0 0.0 0.00 0.81 0.00 92 1010.6